Location: Unspecified
(0.0000°N, 0.0000°E)
Time: 01:21:52
(UTC+00:00)

Tiros 1 despin weight - Pass Details

Date: 21 November 2019
Orbit: 594 x 642 km, 48.2° (Epoch: 10 December)

Event Time Altitude Azimuth Distance (km) Brightness Sun altitude
Rises 07:52:47 0° 185° (S) 2,874 ? 29.7°
Reaches altitude 10° 07:56:37 10° 152° (SSE) 1,954 ? 30.5°
Maximum altitude 07:58:13 12° 131° (SE) 1,837 ? 30.9°
Drops below altitude 10° 07:59:48 10° 110° (ESE) 1,941 ? 31.3°
Sets 08:03:34 0° 77° (ENE) 2,830 ? 32.1°
